Weather History for KLUX - July, 2013

Change the Weather History Date:

Thursday, July 11, 2013

  Actual Average (KGSP) Record (KGSP)
Temperature  
Mean Temperature 76 °F 80 °F  
Max Temperature 82 °F 91 °F 100 °F (1936)
Min Temperature 69 °F 69 °F 54 °F (1891)
Degree Days  
Heating Degree Days 0 0  
Month to date heating degree days 0  
Since 1 June heating degree days 2  
Since 1 July heating degree days 0  
Cooling Degree Days 10 15  
Month to date cooling degree days 163  
Year to date cooling degree days 715  
Since 1 June cooling degree days 514  
Growing Degree Days 26 (Base 50)    
Moisture  
Dew Point 74 °F    
Average Humidity 84    
Maximum Humidity 100    
Minimum Humidity 70    
Precipitation  
Precipitation 0.33 in 0.14 in 3.33 in (1896)
Month to date precipitation 1.57  
Year to date precipitation 24.80  
Snow  
Snow 0.00 in 0.00 in 0.00 in ()
Month to date snowfall 0.0  
Since 1 June snowfall 0.0  
Since 1 July snowfall 0.0  
Snow Depth -    
Sea Level Pressure  
Sea Level Pressure 29.96 in    
Wind  
Wind Speed 5 mph (SSW)    
Max Wind Speed 14 mph    
Max Gust Speed 16 mph    
Visibility 8 miles    
Events Rain , Thunderstorm    
T = Trace of Precipitation, MM = Missing Value Source: NWS Daily Summary

Daily Weather History Graph

Daily Weather History Graph

Search for Another Location

Airport or City:

Trip Planner

Search our weather history database for the weather conditions in past years. The results will help you decide how hot, cold, wet, or windy it might be!

Date:

Astronomy

Jul. 11, 2013 Rise Set
Actual Time 6:24 AM EDT 8:42 PM EDT
Civil Twilight 5:55 AM EDT 9:11 PM EDT
Nautical Twilight 5:19 AM EDT 9:46 PM EDT
Astronomical Twilight 4:40 AM EDT 10:25 PM EDT
Moon 9:31 AM EDT (7/11) 10:33 PM EDT (7/11)
Length of Visible Light 15h 16m
Length of Day
14h 18m
Waxing Crescent, 10% of the Moon is Illuminated
Jul 11
Waxing Crescent
Jul 15
First Quarter
Jul 22
Full
Jul 29
Last Quarter
Aug 6
New

Hourly Weather History & Observations

Time (EDT) Temp. Heat Index Dew Point Humidity Pressure Visibility Wind Dir Wind Speed Gust Speed Precip Events Conditions
12:15 AM 73.4 °F - - N/A% 29.99 in 10.0 mi Calm Calm - N/A   Clear
12:35 AM 71.6 °F - - N/A% 29.99 in 10.0 mi Calm Calm - N/A   Clear
12:55 AM 71.6 °F - - N/A% 29.99 in 10.0 mi SSW 3.5 mph - N/A   Clear
1:15 AM 71.6 °F - - N/A% 29.99 in 10.0 mi South 3.5 mph - N/A   Clear
1:35 AM 71.6 °F - - N/A% 29.98 in 10.0 mi SSE 4.6 mph - N/A   Clear
1:55 AM 71.6 °F - - N/A% 29.98 in 10.0 mi South 3.5 mph - N/A   Scattered Clouds
2:15 AM 71.6 °F - - N/A% 29.99 in 10.0 mi South 5.8 mph - N/A   Mostly Cloudy
2:35 AM 71.6 °F - - N/A% 29.99 in 10.0 mi SSW 5.8 mph - N/A   Overcast
2:55 AM 71.6 °F - - N/A% 29.99 in 10.0 mi South 5.8 mph - N/A   Overcast
3:15 AM 71.6 °F - - N/A% 29.99 in 10.0 mi SSW 5.8 mph - N/A   Overcast
3:35 AM 71.6 °F - - N/A% 29.99 in 10.0 mi SW 4.6 mph - N/A   Overcast
3:55 AM 71.6 °F - - N/A% 29.99 in 10.0 mi SSW 4.6 mph - N/A   Overcast
4:15 AM 71.6 °F - - N/A% 29.98 in 10.0 mi SSW 5.8 mph - N/A   Overcast
4:35 AM 71.6 °F - - N/A% 29.98 in 10.0 mi SSW 6.9 mph - N/A   Overcast
4:55 AM 71.6 °F - - N/A% 29.98 in 7.0 mi SSW 5.8 mph - N/A   Overcast
5:15 AM 71.6 °F - - N/A% 29.97 in 7.0 mi South 8.1 mph - N/A   Overcast
5:35 AM 71.6 °F - - N/A% 29.98 in 5.0 mi SSW 5.8 mph - N/A   Haze
5:55 AM 71.6 °F - - N/A% 29.98 in 7.0 mi SSW 6.9 mph - N/A   Overcast
6:35 AM 71.6 °F - - N/A% 29.98 in 7.0 mi South 6.9 mph - N/A   Overcast
7:15 AM 71.6 °F - - N/A% 29.99 in 7.0 mi South 6.9 mph - N/A   Overcast
7:35 AM 73.4 °F - - N/A% 30.00 in 7.0 mi SSW 5.8 mph - N/A   Overcast
7:55 AM 73.4 °F - - N/A% 30.00 in 7.0 mi SSW 5.8 mph - N/A   Overcast
8:15 AM 73.4 °F - - N/A% 30.01 in 10.0 mi SW 4.6 mph - N/A   Overcast
8:35 AM 73.4 °F - - N/A% 30.01 in 10.0 mi SW 3.5 mph - N/A   Overcast
8:55 AM 73.4 °F - - N/A% 30.01 in 10.0 mi South 5.8 mph - N/A   Overcast
9:15 AM 73.4 °F - - N/A% 30.01 in 10.0 mi SSW 5.8 mph - N/A   Overcast
9:35 AM 73.4 °F - - N/A% 30.00 in 7.0 mi SW 6.9 mph - N/A   Overcast
9:55 AM 73.4 °F - - N/A% 30.00 in 7.0 mi South 8.1 mph - N/A   Overcast
10:35 AM 73.4 °F - - N/A% 30.00 in 7.0 mi SSW 4.6 mph - N/A   Overcast
11:15 AM 77.0 °F - - N/A% 30.00 in 10.0 mi SSW 5.8 mph - N/A   Overcast
11:35 AM 77.0 °F - 77.0 °F 100% 30.00 in 10.0 mi WSW 6.9 mph - N/A   Overcast
11:55 AM 77.0 °F - 77.0 °F 100% 30.00 in 7.0 mi South 6.9 mph - N/A   Overcast
12:15 PM 77.0 °F - 77.0 °F 100% 30.00 in 7.0 mi SSW 5.8 mph - N/A   Overcast
12:35 PM 78.8 °F - 77.0 °F 94% 30.00 in 7.0 mi WSW 5.8 mph - N/A   Overcast
12:55 PM 77.0 °F - 77.0 °F 100% 29.99 in 7.0 mi WSW 5.8 mph - N/A   Overcast
1:15 PM 78.8 °F - 75.2 °F 89% 29.99 in 7.0 mi SW 8.1 mph - N/A   Overcast
1:35 PM 78.8 °F - 73.4 °F 83% 29.98 in 7.0 mi SSW 5.8 mph - N/A   Overcast
1:55 PM 78.8 °F - 73.4 °F 83% 29.98 in 7.0 mi SSW 6.9 mph - N/A   Overcast
2:15 PM 80.6 °F 85.4 °F 73.4 °F 79% 29.97 in 7.0 mi SSW 6.9 mph - N/A   Overcast
2:35 PM 82.4 °F 88.2 °F 73.4 °F 74% 29.96 in 7.0 mi SW 6.9 mph - N/A   Scattered Clouds
2:55 PM 82.4 °F 87.2 °F 71.6 °F 70% 29.95 in 7.0 mi SSW 9.2 mph - N/A   Scattered Clouds
3:15 PM 82.4 °F 87.2 °F 71.6 °F 70% 29.94 in 7.0 mi SW 6.9 mph - N/A   Scattered Clouds
3:35 PM 82.4 °F 88.2 °F 73.4 °F 74% 29.93 in 5.0 mi SW 6.9 mph - N/A Thunderstorm Unknown
3:55 PM 82.4 °F 87.2 °F 71.6 °F 70% 29.93 in 7.0 mi SW 8.1 mph - N/A   Scattered Clouds
4:15 PM 82.4 °F 87.2 °F 71.6 °F 70% 29.92 in 7.0 mi West 6.9 mph - N/A   Mostly Cloudy
4:35 PM 82.4 °F 87.2 °F 71.6 °F 70% 29.92 in 7.0 mi West 4.6 mph - N/A Thunderstorm Scattered Clouds
4:55 PM 82.4 °F 87.2 °F 71.6 °F 70% 29.91 in 7.0 mi WSW 3.5 mph - N/A   Scattered Clouds
5:35 PM 82.4 °F 88.2 °F 73.4 °F 74% 29.91 in 10.0 mi SW 4.6 mph - N/A   Scattered Clouds
6:15 PM 82.4 °F 88.2 °F 73.4 °F 74% 29.91 in 7.0 mi SW 3.5 mph - N/A   Mostly Cloudy
6:35 PM 82.4 °F 88.2 °F 73.4 °F 74% 29.91 in 7.0 mi SW 4.6 mph - N/A   Mostly Cloudy
6:55 PM 80.6 °F 85.4 °F 73.4 °F 79% 29.91 in 7.0 mi WSW 4.6 mph - N/A Thunderstorm Scattered Clouds
7:15 PM 80.6 °F 86.2 °F 75.2 °F 84% 29.91 in 7.0 mi WSW 3.5 mph - N/A Thunderstorm Scattered Clouds
7:35 PM 80.6 °F 86.2 °F 75.2 °F 84% 29.91 in 7.0 mi SW 3.5 mph - N/A Thunderstorm Thunderstorm
7:55 PM 78.8 °F - 77.0 °F 94% 29.91 in 5.0 mi Calm Calm - N/A Thunderstorm Scattered Clouds
8:15 PM 78.8 °F - 78.8 °F 100% 29.92 in 7.0 mi SSE 4.6 mph - N/A Thunderstorm Scattered Clouds
8:35 PM 77.0 °F - - N/A% 29.92 in 7.0 mi SSE 10.4 mph - N/A   Scattered Clouds
8:55 PM 75.2 °F - 73.4 °F 94% 29.93 in 10.0 mi East 10.4 mph 16.1 mph N/A   Light Drizzle
9:15 PM 71.6 °F - - N/A% 29.94 in 5.0 mi SE 6.9 mph - 0.02 in Rain , Thunderstorm Heavy Thunderstorms and Rain
9:35 PM 71.6 °F - - N/A% 29.93 in 10.0 mi ESE 12.7 mph - 0.08 in Rain Light Rain
9:55 PM 69.8 °F - - N/A% 29.94 in 10.0 mi NE 3.5 mph - 0.08 in   Light Drizzle
10:15 PM 69.8 °F - - N/A% 29.94 in 2.0 mi SE 9.2 mph - 0.17 in Rain Heavy Rain
10:35 PM 71.6 °F - 71.6 °F 100% 29.94 in 5.0 mi SSE 13.8 mph - 0.21 in Rain Light Rain
10:55 PM 69.8 °F - 69.8 °F 100% 29.94 in 7.0 mi South 5.8 mph - 0.25 in Rain , Thunderstorm Rain
11:15 PM 71.6 °F - - N/A% 29.94 in 10.0 mi West 5.8 mph - N/A   Clear
11:35 PM 69.8 °F - - N/A% 29.94 in 10.0 mi Calm Calm - N/A   Scattered Clouds
11:55 PM 69.8 °F - - N/A% 29.93 in 10.0 mi South 3.5 mph - N/A   Scattered Clouds